EW1689 Weather Reports


time (UTC)temp
C
wind
direction
speed
KPH
gust
KPH
rain 1hr
cm
rain 24hr
cm
rain mn
cm
humidity
%
barometer
mb
20260508200016 33 0 3.2 11.3 0.00 0.00 0.00 15 1011.3
20260508195016 33 0 1.6 6.4 0.00 0.00 0.00 15 1011.5
20260508194056 33 0 4.8 12.9 0.00 0.00 0.00 15 1011.4
20260508193016 33 0 1.6 8.0 0.00 0.00 0.00 16 1011.8
20260508192016 33 0 1.6 9.7 0.00 0.00 0.00 16 1011.9
20260508191017 32 0 1.6 4.8 0.00 0.00 0.00 16 1012.0
20260508190016 32 0 3.2 6.4 0.00 0.00 0.00 16 1012.0
20260508185016 32 0 3.2 8.0 0.00 0.00 0.00 16 1012.1
20260508184016 31 0 3.2 9.7 0.00 0.00 0.00 17 1012.4
20260508183016 31 0 1.6 8.0 0.00 0.00 0.00 17 1012.5
20260508182015 31 0 1.6 8.0 0.00 0.00 0.00 18 1012.5
20260508181037 30 0 3.2 8.0 0.00 0.00 0.00 18 1012.5
20260508180016 30 0 3.2 11.3 0.00 0.00 0.00 18 1012.6
20260508175016 30 0 3.2 9.7 0.00 0.00 0.00 19 1012.8
20260508174016 30 0 3.2 8.0 0.00 0.00 0.00 19 1012.9
20260508173016 30 0 3.2 8.0 0.00 0.00 0.00 19 1012.9
20260508172015 29 0 3.2 9.7 0.00 0.00 0.00 19 1013.0
20260508171016 29 0 1.6 6.4 0.00 0.00 0.00 21 1013.1
20260508170016 29 0 1.6 8.0 0.00 0.00 0.00 19 1013.1
20260508165016 28 0 1.6 11.3 0.00 0.00 0.00 21 1013.1
20260508164016 28 0 1.6 6.4 0.00 0.00 0.00 20 1013.1
20260508163017 27 0 1.6 6.4 0.00 0.00 0.00 20 1013.0
20260508162018 27 0 3.2 6.4 0.00 0.00 0.00 20 1013.0
20260508161017 28 0 1.6 4.8 0.00 0.00 0.00 20 1013.0
20260508160017 27 0.0 3.2 0.00 0.00 0.00 21 1013.0
20260508155017 27 0 1.6 3.2 0.00 0.00 0.00 21 1012.8
20260508154038 26 0 1.6 6.4 0.00 0.00 0.00 20 1013.0
20260508153017 26 0 1.6 3.2 0.00 0.00 0.00 20 1013.0
20260508152017 26 0 1.6 4.8 0.00 0.00 0.00 20 1013.0
20260508151017 26 0 1.6 3.2 0.00 0.00 0.00 21 1013.1
20260508150017 26 0.0 3.2 0.00 0.00 0.00 22 1013.0
20260508145017 25 0 1.6 3.2 0.00 0.00 0.00 23 1013.0
20260508144017 25 0.0 3.2 0.00 0.00 0.00 22 1013.0
20260508143037 25 0.0 0.0 0.00 0.00 0.00 23 1013.0
20260508142037 25 0.0 0.0 0.00 0.00 0.00 25 1013.1
20260508141017 24 0.0 3.2 0.00 0.00 0.00 26 1013.0
20260508140017 23 0.0 0.0 0.00 0.00 0.00 27 1012.8
20260508135017 22 0.0 0.0 0.00 0.00 0.00 26 1012.5
20260508134017 21 0.0 0.0 0.00 0.00 0.00 27 1012.3
20260508133017 20 0.0 0.0 0.00 0.00 0.00 28 1012.1
20260508132017 20 0.0 0.0 0.00 0.00 0.00 29 1012.0
20260508131038 20 0.0 1.6 0.00 0.00 0.00 29 1011.9
20260508130017 20 0.0 0.0 0.00 0.00 0.00 29 1011.7
20260508125018 19 0.0 0.0 0.00 0.00 0.00 29 1011.6
20260508124017 19 0.0 1.6 0.00 0.00 0.00 29 1011.5
20260508123017 19 0.0 0.0 0.00 0.00 0.00 29 1011.3
20260508122017 19 0.0 0.0 0.00 0.00 0.00 28 1011.2
20260508121037 20 0.0 0.0 0.00 0.00 0.00 28 1011.3
20260508120037 20 0.0 0.0 0.00 0.00 0.00 28 1011.3
20260508115017 20 0.0 0.0 0.00 0.00 0.00 27 1011.5
20260508114016 20 0.0 1.6 0.00 0.00 0.00 28 1011.3
20260508113017 21 0.0 1.6 0.00 0.00 0.00 28 1011.2
20260508112017 21 0.0 4.8 0.00 0.00 0.00 28 1011.2
20260508111016 21 0.0 1.6 0.00 0.00 0.00 29 1011.3
20260508110017 21 0.0 3.2 0.00 0.00 0.00 28 1011.3
20260508105017 21 0.0 3.2 0.00 0.00 0.00 28 1011.2
20260508104016 22 0.0 3.2 0.00 0.00 0.00 28 1011.4
20260508103017 21 0 3.2 6.4 0.00 0.00 0.00 27 1011.2
20260508102017 22 0.0 3.2 0.00 0.00 0.00 27 1011.3
20260508101016 22 0 1.6 6.4 0.00 0.00 0.00 25 1011.2
20260508100017 22 0 1.6 6.4 0.00 0.00 0.00 23 1011.2
20260508095016 22 0.0 3.2 0.00 0.00 0.00 21 1011.1
20260508094017 22 0.0 4.8 0.00 0.00 0.00 20 1011.1
20260508093017 23 0.0 1.6 0.00 0.00 0.00 19 1011.0
20260508092016 23 0 1.6 4.8 0.00 0.00 0.00 19 1011.2
20260508091016 23 0.0 1.6 0.00 0.00 0.00 20 1011.3
20260508090036 24 0.0 0.0 0.00 0.00 0.00 20 1011.4
20260508085037 25 0 1.6 3.2 0.00 0.00 0.00 18 1011.5
20260508084016 25 0 3.2 8.0 0.00 0.00 0.00 18 1011.6
20260508083016 25 0 3.2 9.7 0.00 0.00 0.00 18 1011.7
20260508082016 25 0 1.6 3.2 0.00 0.00 0.00 20 1011.7
20260508081016 25 0.0 3.2 0.00 0.00 0.00 21 1011.7
20260508080016 25 0.0 3.2 0.00 0.00 0.00 20 1011.7
20260508075016 25 0.0 1.6 0.00 0.00 0.00 20 1011.7
20260508074017 25 0 1.6 4.8 0.00 0.00 0.00 20 1011.6
20260508073016 25 0.0 1.6 0.00 0.00 0.00 19 1011.6
20260508072017 25 0.0 0.0 0.00 0.00 0.00 18 1011.6
20260508071016 25 0.0 1.6 0.00 0.00 0.00 18 1011.6
20260508070016 26 0.0 0.0 0.00 0.00 0.00 16 1011.7
20260508065015 26 0.0 4.8 0.00 0.00 0.00 15 1011.6
20260508064036 26 0.0 1.6 0.00 0.00 0.00 14 1011.7
20260508063016 26 0.0 4.8 0.00 0.00 0.00 14 1011.8
20260508062017 27 0 1.6 4.8 0.00 0.00 0.00 14 1011.8
20260508061015 27 0.0 3.2 0.00 0.00 0.00 13 1011.6
20260508060016 27 0.0 3.2 0.00 0.00 0.00 13 1011.7
20260508055018 28 0 1.6 4.8 0.00 0.00 0.00 12 1011.7
20260508054018 28 0 1.6 4.8 0.00 0.00 0.00 12 1011.4
20260508053018 28 0 1.6 4.8 0.00 0.00 0.00 12 1011.3
20260508052017 28 0 3.2 9.7 0.00 0.00 0.00 12 1011.3
20260508051017 28 0 1.6 4.8 0.00 0.00 0.00 12 1011.3
20260508050017 28 0 1.6 8.0 0.00 0.00 0.00 12 1011.3
20260508045017 28 0 1.6 4.8 0.00 0.00 0.00 12 1011.2
20260508044037 28 0 1.6 6.4 0.00 0.00 0.00 12 1011.0
20260508043018 28 0 1.6 8.0 0.00 0.00 0.00 12 1010.9
20260508042017 27 0 1.6 3.2 0.00 0.00 0.00 13 1010.8
20260508041017 27 0 1.6 4.8 0.00 0.00 0.00 13 1010.7
20260508040037 27 0.0 3.2 0.00 0.00 0.00 13 1010.7
20260508035018 27 0.0 3.2 0.00 0.00 0.00 13 1010.5
20260508034017 27 0.0 4.8 0.00 0.00 0.00 13 1010.4
20260508033017 28 0 1.6 6.4 0.00 0.00 0.00 13 1010.2
20260508032037 28 0 1.6 3.2 0.00 0.00 0.00 13 1010.0
20260508031037 28 0 1.6 6.4 0.00 0.00 0.00 13 1009.8
20260508030017 28 0.0 3.2 0.00 0.00 0.00 13 1009.7
20260508025017 28 0.0 3.2 0.00 0.00 0.00 13 1009.6
20260508024017 29 0 1.6 6.4 0.00 0.00 0.00 12 1009.3
20260508023017 29 0 1.6 4.8 0.00 0.00 0.00 12 1009.1
20260508022037 30 0.0 3.2 0.00 0.00 0.00 12 1009.2
20260508021017 30 0 1.6 6.4 0.00 0.00 0.00 11 1008.9
20260508020017 30 0.0 3.2 0.00 0.00 0.00 11 1008.7
20260508015017 30 0 3.2 8.0 0.00 0.00 0.00 11 1008.6
20260508014017 31 0 1.6 9.7 0.00 0.00 0.00 10 1008.4
20260508013017 31 0 1.6 8.0 0.00 0.00 0.00 10 1008.3
20260508012017 31 0 1.6 8.0 0.00 0.00 0.00 10 1008.3
20260508011017 31 0 1.6 8.0 0.00 0.00 0.00 10 1008.4
20260508010016 31 0 3.2 11.3 0.00 0.00 0.00 9 1008.4
20260508005037 32 0 1.6 8.0 0.00 0.00 0.00 10 1008.3
20260508004037 32 0 4.8 11.3 0.00 0.00 0.00 9 1008.3
20260508003017 32 0 1.6 4.8 0.00 0.00 0.00 9 1008.2
20260508002017 32 0 3.2 16.1 0.00 0.00 0.00 9 1008.3
20260508001016 32 0 3.2 17.7 0.00 0.00 0.00 9 1008.4
20260508000016 32 0 6.4 16.1 0.00 0.00 0.00 9 1008.5
20260507235037 32 0 1.6 4.8 0.00 0.00 0.00 9 1008.6
20260507234016 32 203 1.6 8.0 0.00 0.00 0.00 8 1008.7
20260507233017 32 180 3.2 6.4 0.00 0.00 0.00 9 1008.6
20260507232017 32 203 4.8 14.5 0.00 0.00 0.00 9 1008.6
20260507231057 32 180 3.2 8.0 0.00 0.00 0.00 8 1008.8
20260507230016 33 180 4.8 12.9 0.00 0.00 0.00 8 1008.8
20260507225016 33 180 3.2 9.7 0.00 0.00 0.00 8 1009.0
20260507224016 33 68 4.8 9.7 0.00 0.00 0.00 8 1009.1
20260507223016 33 0 1.6 3.2 0.00 0.00 0.00 8 1009.2
20260507222016 33 0 4.8 12.9 0.00 0.00 0.00 9 1009.4
20260507221016 33 0 1.6 6.4 0.00 0.00 0.00 9 1009.5
20260507220036 33 0 3.2 8.0 0.00 0.00 0.00 8 1009.7
20260507215016 33 0 4.8 12.9 0.00 0.00 0.00 9 1009.9
20260507214016 33 0 1.6 4.8 0.00 0.00 0.00 9 1010.1
20260507213016 33 0 1.6 6.4 0.00 0.00 0.00 10 1010.3
20260507212016 32 0 3.2 6.4 0.00 0.00 0.00 8 1010.2
20260507211016 33 0 4.8 11.3 0.00 0.00 0.00 8 1010.5
20260507210016 34 0 1.6 3.2 0.00 0.00 0.00 8 1010.8
20260507205016 35 0 1.6 4.8 0.00 0.00 0.00 9 1011.0
20260507204016 34 0 1.6 4.8 0.00 0.00 0.00 9 1011.2
20260507203017 34 0 1.6 4.8 0.00 0.00 0.00 9 1011.4
20260507202016 33 0 1.6 4.8 0.00 0.00 0.00 10 1011.3
20260507201036 33 0 1.6 6.4 0.00 0.00 0.00 10 1011.4